Back to catalog

STARLINK-38176

AliveCommunicationsSSO
NORAD 100189·PAYLOAD·🇺🇸 United States

Launched Aug 1, 2026 from Vandenberg Space Force Base

Loading…

Next Passes (next 24 hours)

TLE

FreshSource: Space-Track

Epoch: Sep 14, 2026, 12:48 UTC

1 A0189U 26175L   26257.53337279  .00233339  00000-0  15178-2 0  9997
2 A0189  97.2837  99.6234 0001174  99.5437 260.5961 15.75268365  8239

Track STARLINK-38176 in real time with AllMySat

Download on the App Store